TimePDT,TemperatureF,Dew PointF,Humidity,Sea Level PressureIn,VisibilityMPH,Wind Direction,Wind SpeedMPH,Gust SpeedMPH,PrecipitationIn,Events,Conditions,WindDirDegrees,DateUTC
12:10 AM,51.8,41.0,67,30.27,10.0,Calm,Calm,-,N/A,,Clear,0,2013-03-11 07:10:00
12:30 AM,48.2,41.0,76,30.27,10.0,Calm,Calm,-,N/A,,Clear,0,2013-03-11 07:30:00
12:50 AM,50.0,41.0,71,30.27,10.0,East,5.8,-,N/A,,Clear,80,2013-03-11 07:50:00
1:10 AM,50.0,41.0,71,30.27,10.0,East,4.6,-,N/A,,Clear,90,2013-03-11 08:10:00
1:30 AM,48.2,41.0,76,30.26,10.0,Calm,Calm,-,N/A,,Clear,0,2013-03-11 08:30:00
1:50 AM,48.2,41.0,76,30.26,10.0,East,3.5,-,N/A,,Clear,100,2013-03-11 08:50:00
2:10 AM,48.2,41.0,76,30.27,10.0,Calm,Calm,-,N/A,,Clear,0,2013-03-11 09:10:00
2:30 AM,46.4,41.0,81,30.27,10.0,ENE,3.5,-,N/A,,Clear,60,2013-03-11 09:30:00
2:50 AM,48.2,41.0,76,30.26,10.0,East,3.5,-,N/A,,Clear,100,2013-03-11 09:50:00
3:10 AM,46.4,41.0,81,30.26,10.0,Calm,Calm,-,N/A,,Clear,0,2013-03-11 10:10:00
3:30 AM,46.4,41.0,81,30.26,10.0,Calm,Calm,-,N/A,,Clear,0,2013-03-11 10:30:00
3:50 AM,46.4,41.0,81,30.26,10.0,Calm,Calm,-,N/A,,Clear,0,2013-03-11 10:50:00
4:10 AM,44.6,41.0,87,30.26,8.0,West,3.5,-,N/A,,Clear,280,2013-03-11 11:10:00
4:30 AM,42.8,39.2,87,30.27,10.0,Calm,Calm,-,N/A,,Clear,0,2013-03-11 11:30:00
4:50 AM,42.8,39.2,87,30.26,10.0,North,3.5,-,N/A,,Clear,360,2013-03-11 11:50:00
5:10 AM,42.8,39.2,87,30.26,10.0,Calm,Calm,-,N/A,,Clear,0,2013-03-11 12:10:00
5:30 AM,42.8,39.2,87,30.27,9.0,Calm,Calm,-,N/A,,Clear,0,2013-03-11 12:30:00
5:50 AM,42.8,39.2,87,30.27,9.0,Calm,Calm,-,N/A,,Clear,0,2013-03-11 12:50:00
6:10 AM,41.0,41.0,100,30.27,8.0,Calm,Calm,-,N/A,,Clear,0,2013-03-11 13:10:00
6:30 AM,41.0,39.2,93,30.27,7.0,North,3.5,-,N/A,,Clear,350,2013-03-11 13:30:00
6:50 AM,41.0,39.2,93,30.27,8.0,Calm,Calm,-,N/A,,Clear,0,2013-03-11 13:50:00
7:10 AM,39.2,37.4,93,30.27,9.0,Calm,Calm,-,N/A,,Clear,0,2013-03-11 14:10:00
7:30 AM,41.0,39.2,93,30.27,6.0,Calm,Calm,-,N/A,,Clear,0,2013-03-11 14:30:00
7:50 AM,41.0,39.2,93,30.27,7.0,North,3.5,-,N/A,,Clear,10,2013-03-11 14:50:00
8:10 AM,42.8,41.0,93,30.27,7.0,North,4.6,-,N/A,,Clear,10,2013-03-11 15:10:00
8:30 AM,46.4,42.8,87,30.28,7.0,North,3.5,-,N/A,,Clear,350,2013-03-11 15:30:00
8:50 AM,48.2,44.6,87,30.28,9.0,North,4.6,-,N/A,,Clear,10,2013-03-11 15:50:00
9:10 AM,50.0,44.6,82,30.28,8.0,Calm,Calm,-,N/A,,Clear,0,2013-03-11 16:10:00
9:30 AM,51.8,42.8,71,30.28,10.0,Calm,Calm,-,N/A,,Clear,0,2013-03-11 16:30:00
9:50 AM,53.6,44.6,72,30.28,9.0,Calm,Calm,-,N/A,,Clear,0,2013-03-11 16:50:00
10:10 AM,55.4,44.6,67,30.28,9.0,Calm,Calm,-,N/A,,Clear,0,2013-03-11 17:10:00
10:30 AM,55.4,44.6,67,30.27,9.0,Calm,Calm,-,N/A,,Clear,0,2013-03-11 17:30:00
10:50 AM,57.2,46.4,67,30.27,9.0,NNW,3.5,-,N/A,,Clear,340,2013-03-11 17:50:00
11:10 AM,59.0,44.6,59,30.26,9.0,Calm,Calm,-,N/A,,Clear,0,2013-03-11 18:10:00
11:30 AM,59.0,44.6,59,30.25,10.0,Calm,Calm,-,N/A,,Clear,0,2013-03-11 18:30:00
11:50 AM,60.8,44.6,55,30.25,9.0,North,3.5,-,N/A,,Clear,350,2013-03-11 18:50:00
12:10 PM,62.6,46.4,55,30.24,9.0,WNW,3.5,-,N/A,,Clear,290,2013-03-11 19:10:00
12:30 PM,62.6,44.6,52,30.23,9.0,WNW,4.6,-,N/A,,Clear,290,2013-03-11 19:30:00
12:50 PM,64.4,46.4,52,30.22,10.0,Calm,Calm,-,N/A,,Clear,0,2013-03-11 19:50:00
1:10 PM,64.4,42.8,45,30.21,10.0,WNW,3.5,-,N/A,,Clear,290,2013-03-11 20:10:00
1:30 PM,64.4,41.0,42,30.20,9.0,Calm,Calm,-,N/A,,Clear,0,2013-03-11 20:30:00
1:50 PM,66.2,41.0,40,30.19,9.0,Calm,Calm,-,N/A,,Clear,0,2013-03-11 20:50:00
2:10 PM,66.2,41.0,40,30.18,10.0,WSW,5.8,-,N/A,,Clear,250,2013-03-11 21:10:00
2:30 PM,66.2,41.0,40,30.17,10.0,West,3.5,-,N/A,,Clear,270,2013-03-11 21:30:00
2:50 PM,68.0,39.2,35,30.16,9.0,NNW,3.5,-,N/A,,Unknown,330,2013-03-11 21:50:00
3:10 PM,68.0,41.0,37,30.16,10.0,Calm,Calm,-,N/A,,Clear,0,2013-03-11 22:10:00
3:30 PM,68.0,39.2,35,30.15,10.0,Calm,Calm,-,N/A,,Clear,0,2013-03-11 22:30:00
3:50 PM,69.8,41.0,35,30.14,10.0,Calm,Calm,-,N/A,,Clear,0,2013-03-11 22:50:00
4:10 PM,68.0,37.4,33,30.14,10.0,Calm,Calm,-,N/A,,Clear,0,2013-03-11 23:10:00
4:30 PM,69.8,39.2,33,30.14,10.0,NNW,3.5,-,N/A,,Clear,330,2013-03-11 23:30:00
4:50 PM,71.6,41.0,33,30.13,10.0,WSW,3.5,-,N/A,,Clear,250,2013-03-11 23:50:00
5:10 PM,69.8,41.0,35,30.12,10.0,Calm,Calm,-,N/A,,Clear,0,2013-03-12 00:10:00
5:30 PM,69.8,39.2,33,30.12,10.0,Calm,Calm,-,N/A,,Clear,0,2013-03-12 00:30:00
5:50 PM,69.8,39.2,33,30.11,10.0,SW,3.5,-,N/A,,Clear,230,2013-03-12 00:50:00
6:10 PM,68.0,41.0,37,30.11,10.0,WNW,3.5,-,N/A,,Clear,290,2013-03-12 01:10:00
6:30 PM,68.0,41.0,37,30.11,10.0,West,3.5,-,N/A,,Clear,260,2013-03-12 01:30:00
6:50 PM,66.2,39.2,37,30.11,10.0,Calm,Calm,-,N/A,,Clear,0,2013-03-12 01:50:00
7:10 PM,64.4,41.0,42,30.11,10.0,SSE,8.1,-,N/A,,Clear,150,2013-03-12 02:10:00
7:30 PM,62.6,44.6,52,30.11,10.0,SE,6.9,-,N/A,,Clear,140,2013-03-12 02:30:00
7:50 PM,60.8,44.6,55,30.11,10.0,SSE,6.9,-,N/A,,Clear,150,2013-03-12 02:50:00
8:10 PM,60.8,42.8,52,30.11,10.0,SSE,5.8,-,N/A,,Clear,150,2013-03-12 03:10:00
8:30 PM,60.8,42.8,52,30.11,10.0,SSE,5.8,-,N/A,,Clear,150,2013-03-12 03:30:00
8:50 PM,60.8,42.8,52,30.12,10.0,SE,5.8,-,N/A,,Clear,130,2013-03-12 03:50:00
9:10 PM,59.0,44.6,59,30.12,10.0,ESE,5.8,-,N/A,,Clear,120,2013-03-12 04:10:00
9:30 PM,59.0,42.8,55,30.12,10.0,SE,5.8,-,N/A,,Clear,130,2013-03-12 04:30:00
9:50 PM,57.2,42.8,59,30.12,10.0,ESE,5.8,-,N/A,,Clear,120,2013-03-12 04:50:00
10:10 PM,57.2,44.6,63,30.12,10.0,ESE,4.6,-,N/A,,Clear,120,2013-03-12 05:10:00
10:30 PM,57.2,44.6,63,30.12,9.0,ESE,5.8,-,N/A,,Clear,110,2013-03-12 05:30:00
10:50 PM,55.4,44.6,67,30.12,9.0,ESE,4.6,-,N/A,,Clear,120,2013-03-12 05:50:00
11:10 PM,55.4,44.6,67,30.12,10.0,ESE,3.5,-,N/A,,Clear,110,2013-03-12 06:10:00
11:30 PM,55.4,44.6,67,30.12,10.0,Calm,Calm,-,N/A,,Clear,0,2013-03-12 06:30:00
11:50 PM,55.4,44.6,67,30.12,10.0,SE,3.5,-,N/A,,Clear,130,2013-03-12 06:50:00